Corpus Christi, TX

12:48 AM CDT on July 28, 2017 (GMT -0500)
Corpus Christi International

Weather History for KCRP - August, 2012

Change the Weather History Date:

Wednesday, August 1, 2012

  Actual Average Record
Temperature  
Mean Temperature 87 °F 85 °F  
Max Temperature 100 °F 94 °F 101 °F (1989)
Min Temperature 74 °F 75 °F 69 °F (2005)
Degree Days  
Heating Degree Days 0 0  
Month to date heating degree days 0 0  
Since 1 June heating degree days 0 0  
Since 1 July heating degree days 0 0  
Cooling Degree Days 22 20  
Month to date cooling degree days 22 20  
Year to date cooling degree days 2522 1970  
Since 1 June cooling degree days 1289 1129  
Growing Degree Days 36 (Base 50)    
Moisture  
Dew Point 71 °F    
Average Humidity 63    
Maximum Humidity 93    
Minimum Humidity 33    
Precipitation  
Precipitation 0.00 in 0.06 in 2.05 in (1947)
Month to date precipitation 0.00 0.06  
Year to date precipitation 14.30 16.48  
Snow  
Snow 0.00 in - - ()
Month to date snowfall 0.0  
Since 1 June snowfall 0.0  
Since 1 July snowfall 0.0  
Snow Depth 0.00 in    
Sea Level Pressure  
Sea Level Pressure 29.94 in    
Wind  
Wind Speed 12 mph (SSE)    
Max Wind Speed 21 mph    
Max Gust Speed 26 mph    
Visibility 10 miles    
Events      
T = Trace of Precipitation, MM = Missing Value Source: NWS Daily Summary

Daily Weather History Graph

Daily Weather History Graph

Search for Another Location

Airport or City:

Trip Planner

Search our weather history database for the weather conditions in past years. The results will help you decide how hot, cold, wet, or windy it might be!

Date:

Astronomy

Aug. 01, 2012 Rise Set
Actual Time 6:53 AM CDT 8:18 PM CDT
Civil Twilight 6:28 AM CDT 8:44 PM CDT
Nautical Twilight 5:57 AM CDT 9:14 PM CDT
Astronomical Twilight 5:26 AM CDT 9:45 PM CDT
Moon 7:55 PM CDT (8/1) 6:21 AM CDT (8/1)
Length of Visible Light 14h 16m
Length of Day
13h 25m
Full, 100% of the Moon is Illuminated
Aug 1
Full
Aug 1
Full
Aug 9
Last Quarter
Aug 17
New
Aug 24
First Quarter

Hourly Weather History & Observations

Time (CDT) Temp. Heat Index Dew Point Humidity Pressure Visibility Wind Dir Wind Speed Gust Speed Precip Events Conditions
12:51 AM 82.0 °F 89.4 °F 75.9 °F 82% 29.98 in 10.0 mi SSE 11.5 mph - N/A   Partly Cloudy
1:51 AM 81.0 °F 86.7 °F 75.0 °F 82% 29.96 in 10.0 mi South 11.5 mph - N/A   Partly Cloudy
2:51 AM 80.1 °F 85.1 °F 75.0 °F 85% 29.96 in 10.0 mi South 8.1 mph - N/A   Partly Cloudy
3:51 AM 80.1 °F 85.1 °F 75.0 °F 85% 29.96 in 10.0 mi South 8.1 mph - N/A   Partly Cloudy
4:51 AM 79.0 °F - 73.9 °F 84% 29.97 in 10.0 mi SSW 5.8 mph - N/A   Partly Cloudy
5:51 AM 75.9 °F - 72.0 °F 87% 29.96 in 10.0 mi South 4.6 mph - N/A   Partly Cloudy
6:51 AM 73.9 °F - 71.1 °F 91% 29.97 in 9.0 mi SSE 4.6 mph - N/A   Partly Cloudy
7:51 AM 78.1 °F - 73.9 °F 87% 29.98 in 8.0 mi SSE 4.6 mph - N/A   Partly Cloudy
8:51 AM 84.0 °F 91.2 °F 73.9 °F 72% 29.99 in 9.0 mi South 12.7 mph - N/A   Partly Cloudy
9:51 AM 88.0 °F 94.7 °F 72.0 °F 59% 29.98 in 10.0 mi South 15.0 mph 23.0 mph N/A   Clear
10:51 AM 91.9 °F 96.9 °F 69.1 °F 47% 29.97 in 10.0 mi South 10.4 mph - N/A   Clear
11:51 AM 96.1 °F 99.9 °F 66.9 °F 38% 29.96 in 10.0 mi SSE 11.5 mph 18.4 mph N/A   Clear
12:51 PM 98.1 °F 101.2 °F 64.9 °F 34% 29.95 in 10.0 mi SSE 8.1 mph 19.6 mph N/A   Clear
1:51 PM 99.0 °F 106.2 °F 70.0 °F 39% 29.94 in 10.0 mi SE 16.1 mph 23.0 mph N/A   Clear
2:51 PM 100.0 °F 104.9 °F 66.9 °F 34% 29.91 in 10.0 mi SE 16.1 mph 23.0 mph N/A   Clear
3:51 PM 98.1 °F 102.4 °F 66.9 °F 36% 29.90 in 10.0 mi SE 15.0 mph 23.0 mph N/A   Clear
4:51 PM 97.0 °F 100.4 °F 66.0 °F 36% 29.89 in 10.0 mi SE 12.7 mph 23.0 mph N/A   Clear
5:51 PM 93.9 °F 97.0 °F 66.0 °F 40% 29.88 in 10.0 mi SE 17.3 mph 25.3 mph N/A   Clear
6:51 PM 91.0 °F 97.6 °F 71.1 °F 52% 29.88 in 10.0 mi SE 17.3 mph - N/A   Clear
7:51 PM 87.1 °F 93.6 °F 72.0 °F 61% 29.89 in 10.0 mi SE 17.3 mph 23.0 mph N/A   Clear
8:51 PM 84.9 °F 93.3 °F 75.0 °F 72% 29.90 in 10.0 mi SSE 12.7 mph 21.9 mph N/A   Clear
9:51 PM 82.4 °F 89.5 °F 75.2 °F 79% 29.91 in 10.0 mi SSE 13.8 mph - N/A   Clear
10:51 PM 82.9 °F 90.2 °F 75.0 °F 77% 29.92 in 10.0 mi SSE 9.2 mph - N/A   Clear
11:51 PM 82.0 °F 89.4 °F 75.9 °F 82% 29.92 in 10.0 mi SSE 11.5 mph - N/A   Partly Cloudy